Regional Weather Roundup
Issued by NWS

Home | Current Version | Previous Version | Graphics & Text | Print | Product List | Glossary On
Versions: 1 2 3 4 5 6 7 8 9 10 11 12 13 14 15 16 17 18 19 20 21 22 23 24 25 26 27 28 29 30 31 32 33 34 35 36 37 38 39 40 41 42 43 44 45 46 47 48 49 50
839
ASUS43 KOAX 220902
RWRNE

WEATHER ROUNDUP FOR NEBRASKA
NATIONAL WEATHER SERVICE OMAHA NE
400 AM CDT TUE MAY 22 2018

NOTES: SATELLITE DATA IS BEING USED TO AUGMENT CLOUD COVER ABOVE
       12000 FEET.
       "FAIR" INDICATES FEW OR NO CLOUDS BELOW 12,000 FEET WITH NO
       SIGNIFICANT WEATHER AND/OR OBSTRUCTIONS TO VISIBILITY.


NEZ001>004-019>022-054>056-221000-
NEBRASKA PANHANDLE

CITY           SKY/WX    TMP DP  RH WIND       PRES   REMARKS
SCOTTSBLUFF    PTCLDY    55  54  96 NE7       29.94S
ALLIANCE       CLEAR     51  51 100 N6        29.95S
CHADRON        PTCLDY    53  52  96 W6        29.91F
GORDON         FAIR      48  47  94 W3        29.93F
KIMBALL        PTCLDY    53  51  95 N3        29.97S
SIDNEY         CLEAR     50  49  96 CALM      29.95R
$$

NEZ057>060-069>072-079>082-221000-
SOUTHWEST NEBRASKA

CITY           SKY/WX    TMP DP  RH WIND       PRES   REMARKS
NORTH PLATTE   PTCLDY    58  57  97 SE8       29.90S FOG
IMPERIAL       CLEAR     56  54  93 S8        29.90S
LEXINGTON      CLEAR     61  59  92 SE8       29.91R
MCCOOK         PTCLDY    61  58  90 SW6       29.89R
OGALLALA       CLEAR     58  57  95 E3        29.90R
$$

NEZ005>010-023>029-035>040-094-221000-
NORTH CENTRAL NEBRASKA

CITY           SKY/WX    TMP DP  RH WIND       PRES   REMARKS
VALENTINE      MOCLDY    60  56  86 E5        29.93F
AINSWORTH      PTCLDY    59  57  92 SE9       29.94S
BROKEN BOW     PTCLDY    60  57  89 SE7       29.92S
O`NEILL        MOCLDY    64  58  83 SE7       29.95F
ORD            MOCLDY    61  58  90 E8        29.92F
THEDFORD       FOG       56  55  99 CALM      29.93S VSB 1/2
$$

NEZ041-046>049-061>064-073>077-083>087-221000-
SOUTH CENTRAL NEBRASKA

CITY           SKY/WX    TMP DP  RH WIND       PRES   REMARKS
GRAND ISLAND   PTCLDY    64  57  78 SE13      29.95F
AURORA         MOCLDY    63  58  86 SE10      29.96S
HASTINGS       CLOUDY    63  57  81 SE9       29.96R
HEBRON         MOCLDY    64  59  85 SE7       29.97R
HOLDREGE       CLEAR     61  60  94 SE15      29.92S
KEARNEY        CLEAR     62  58  86 SE16      29.92F
YORK           CLOUDY    64  64 100 S12       29.96F
$$

NEZ011>018-030>034-042>045-221000-
NORTHEAST NEBRASKA

CITY           SKY/WX    TMP DP  RH WIND       PRES   REMARKS
NORFOLK        CLOUDY    62  57  83 E5        29.96S
ALBION         CLOUDY    63  58  83 E5        29.96S
BLAIR          MOCLDY    62  56  83 E7        29.98S
COLUMBUS       CLOUDY    62  57  83 E6        29.97F
FREMONT        CLOUDY    64  56  78 SE5       29.98F
TEKAMAH        CLOUDY    59  58  96 SE3       29.98S
WAYNE          CLOUDY    60  59  96 CALM      29.98S
$$

NEZ050>053-065>068-078-088>093-221000-
SOUTHEAST NEBRASKA

CITY           SKY/WX    TMP DP  RH WIND       PRES   REMARKS
LINCOLN        CLOUDY    62  56  80 CALM      29.98S
OMAHA EPPLEY   CLOUDY    63  56  78 SE5       29.98S
BEATRICE       MOCLDY    67  61  83 S9        29.97F
FALLS CITY     CLEAR     61  58  90 S7        29.98S
NEBRASKA CITY  CLEAR     60  60 100 S5        29.99S
PLATTSMOUTH    CLOUDY    60  57  89 SE3       29.99S
$$

NEZ044-045-051>053-067-221000-
OMAHA AREA

CITY           SKY/WX    TMP DP  RH WIND       PRES   REMARKS
OMAHA EPPLEY   CLOUDY    63  56  78 SE5       29.98S
BLAIR          MOCLDY    62  56  83 E7        29.98S
FREMONT        CLOUDY    64  56  78 SE5       29.98F
MILLARD        MOCLDY    61  57  87 SE3       29.98S
OFFUTT AFB     CLOUDY    58  57  96 CALM      29.97S
PLATTSMOUTH    CLOUDY    60  57  89 SE3       29.99S
WAHOO          FAIR      60  55  84 CALM      29.98S
$$




USA.gov is the U.S. government's official web portal to all federal, state and local government web resources and services.